BREEZE-KM R/B, 43754

Orbit data source: Space-Track

BREEZE-KM R/B, 43754 is space debris in LEO originally from a launch on Fri, 30 Nov 2018 UTC launched from the Plesetsk Missile And Space Complex (PKMTR). Debris objects in space refer to the collection of defunct objects orbiting the Earth. Examples of debris include non-operational satellites, rocket bodies, and fragments generated from explosions, collisions, or faulty payload assembly.

Loading next visibility...
Identifier
43754, 2018-097D
Orbit
LEO
Country
Flag of CISCIS
Related business
Manufacturer
Khrunichev
Mission
Spacecraft
Bus & Motor
BRIZ, S5.92
Mass
2,370 kg wet, 2,370 kg dry
Launch date (UTC)
2018-11-30 (8 years ago)
Launch vehicle
Unknown
Launch site
Plesetsk Missile And Space Complex (PKMTR)
Object type
Payload
Rocket body
Debris
Shape & HBR
Hex Cyl + 1 Rod, 2.0 m
Radar Cross Section
10.190 m², Large (>1 m²)

Expand to show TLE details & history
Last TLE update: 5 days ago

TLE from 5 days ago
0 BREEZE-KM R/B
1 43754U 18097D   26154.30486445  .00000011  00000-0  22781-5 0  9997
2 43754  82.5126 108.1499 0221859 338.2769  20.9031 12.80115792350645
Epoch: 2026-06-03T07:19Z
TLE epoch observation values (Epoch: 2026-06-03T07:19:00.288Z)
Latitude
-0.00007°
Longitude
106.6333°
Altitude
1,184.247 km
Speed
7.336 km/s
True Right ascension
07h 12m 35s
True Declination
0° 00' 00"
Sunlit
Object was in daylight at epoch
Visualization orbit readout
Latitude
Unknown
Longitude
Unknown
Altitude
Unknown
Speed
Unknown
Apparent Right ascension
Unknown
Apparent Declination
Unknown
Sunlit
N/A
Visualization observer readout
Local Sidereal Time
03:08:06
Azimuth
Unknown
Elevation
Unknown
Doppler factor
Unknown
Orbital elements
Apogee altitude
1,509.497 km
Perigee altitude
1,167.104 km
Semi-major axis
7,716.438 km
Eccentricity
0.02219
Inclination
82.5126°
RAAN
108.1499°
Arg. of periapsis
338.2769°
True anomaly
21.83423°
Mean anomaly
20.9031°
Eccentric anomaly
21.36622°
Mean motion
3.20197 °/min
Orbital period
112.43 mins
BSTAR
0.0000022781
Loading maneuver chart data...
Computing Atmospheric mass density...
Loading historical data...
Loading historical data...
Loading historical data...
Loading historical data...
Loading historical data...
Loading historical data...
Loading historical data...
Other satellites on launch #97 in the year 2018 (2018-11-30 UTC)

Documentation

Showing up to 5 results
|